• Join FlightAware (Why Join?)
  • Login
  • US Flag 
09:35AM EST


 

Airport Tracker/Info


-or-


 

Live Flight TrackerFlight Track Log ✈ SWA864 ✈ 06-Jul-2013 ✈ KDEN - KSLC

Flight Track Log - Related Links

Times and Time Zones

All times are in EDT time to prevent confusion due to time zone crossing. See the SWA864 flight status page for this flight to view local times or setup timezone preferences in your user account.

Time Position Orientation Groundspeed Altitude Reporting Facility
EDT Latitude Longitude Course Direction KTS MPH feet Rate Location/Type
02:19PM 39.8500 -104.7500 276° West 184 212 6,600  Level Denver TRACON
02:20PM 39.8508 -104.7819 272° West 193 222 7,500 1,500 Climbing Denver Center
02:21PM 39.8878 -104.8522 304° West 236 272 9,000 2,081 Climbing Denver Center
02:22PM 39.9314 -104.9522 300° West 291 335 11,800 2,338 Climbing Denver Center
02:23PM 39.9567 -105.0678 286° West 335 386 14,300 2,365 Climbing Denver Center
02:24PM 39.9753 -105.2289 279° West 370 426 17,200 2,565 Climbing Denver Center
02:25PM 39.8969 -105.2089 276° West  Level FlightAware Approximate
02:25PM 39.9831 -105.3461 275° West 381 438 19,600  Level Denver Center
02:26PM 39.9806 -105.5228 269° West 400 460 22,600 1,632 Climbing Denver Center
02:27PM 39.9756 -105.6703 268° West 408 470 23,000 1,016 Climbing Denver Center
02:28PM 39.9714 -105.8306 268° West 398 458 24,700 1,902 Climbing Denver Center
02:29PM 39.9764 -105.9817 273° West 415 478 26,900 1,902 Climbing Denver Center
02:30PM 39.9864 -106.1322 275° West 420 483 28,600 1,500 Climbing Denver Center
02:31PM 39.9947 -106.2903 274° West 436 502 30,000 1,742 Climbing Denver Center
02:32PM 40.0036 -106.4519 274° West 446 513 32,200 2,226 Climbing Denver Center
02:33PM 40.0106 -106.6178 273° West 432 497 34,600 2,177 Climbing Denver Center
02:35PM 40.0189 -106.7844 274° West 416 479 36,700 1,694 Climbing Denver Center
02:36PM 40.0267 -106.9242 274° West 406 467 38,100 1,306 Climbing Denver Center
02:37PM 40.0336 -107.0836 273° West 397 457 39,400 919 Climbing Denver Center
02:38PM 40.0392 -107.2225 273° West 400 460 40,000 290 Climbing Denver Center
02:39PM 40.0453 -107.3586 273° West 396 456 40,000  Level Denver Center
02:40PM 40.0508 -107.5178 273° West 395 455 40,000  Level Denver Center
02:41PM 40.0567 -107.6531 273° West 392 451 40,000  Level Denver Center
02:42PM 40.0644 -107.8342 273° West 391 450 40,000  Level Denver Center
02:43PM 40.0700 -107.9919 273° West 391 450 40,000  Level Denver Center
02:44PM 40.0781 -108.1294 274° West 395 455 40,000  Level Denver Center
02:45PM 40.0842 -108.2908 273° West 400 460 40,000  Level Denver Center
02:46PM 40.0883 -108.3839 273° West 402 463 40,000  Level Salt Lake Center
02:47PM 40.0944 -108.5231 273° West 404 465 40,000  Level Salt Lake Center
02:48PM 40.1014 -108.6853 273° West 404 465 40,000  Level Salt Lake Center
02:49PM 40.1064 -108.8231 273° West 401 461 40,000  Level Salt Lake Center
02:50PM 40.1119 -108.9842 273° West 400 460 40,000  Level Salt Lake Center
02:51PM 40.1167 -109.1231 273° West 401 461 40,000 -97 Level Salt Lake Center
02:52PM 40.1228 -109.2842 273° West 400 460 39,800 -532 Descending Salt Lake Center
02:53PM 40.1269 -109.4225 272° West 398 458 38,900 -968 Descending Salt Lake Center
02:54PM 40.1322 -109.5842 272° West 400 460 37,800 -968 Descending Salt Lake Center
02:55PM 40.1369 -109.7242 273° West 403 464 36,900 -871 Descending Salt Lake Center
02:56PM 40.1419 -109.8647 273° West 405 466 36,000 -968 Descending Salt Lake Center
02:57PM 40.1453 -110.0297 272° West 406 467 34,900 -976 Descending Salt Lake Center
02:58PM 40.1492 -110.1756 272° West 417 480 34,000 -976 Descending Salt Lake Center
02:59PM 40.1469 -110.3458 269° West 420 483 32,900 -968 Descending Salt Lake Center
03:00PM 40.1469 -110.4956 270° West 429 494 32,000 -968 Descending Salt Lake Center
03:01PM 40.1444 -110.6636 269° West 415 478 30,900 -1,016 Descending Salt Lake Center
03:02PM 40.1419 -110.8078 269° West 415 478 29,900 -1,306 Descending Salt Lake Center
03:03PM 40.1403 -110.9756 269° West 406 467 28,200 -1,887 Descending Salt Lake Center
03:04PM 40.1389 -111.1158 269° West 389 448 26,000 -2,129 Descending Salt Lake Center
03:05PM 40.1367 -111.2517 269° West 377 434 23,800 -2,146 Descending Salt Lake Center
03:06PM 40.1339 -111.3847 268° West 368 423 21,600 -2,146 Descending Salt Lake Center
03:07PM 40.1308 -111.5128 268° West 354 407 19,400 -1,545 Descending Salt Lake Center
03:08PM 40.1475 -111.6119 282° West 353 406 19,000 -240 Descending Salt Lake Center
03:09PM 40.1925 -111.7286 297° West 353 406 19,000 -98 Level Salt Lake Center
03:10PM 40.2372 -111.8453 297° West 357 411 18,800 -992 Descending Salt Lake Center
03:11PM 40.2847 -111.9531 300° West 354 407 17,000 -1,339 Descending Salt Lake Center
03:12PM 40.3708 -112.0194 330° Northwest 356 410 16,100 -1,377 Descending Salt Lake Center
03:13PM 40.4611 -112.0625 340° North 350 403 14,200 -1,884 Descending Salt Lake Center
03:14PM 40.5603 -112.0742 355° North 351 404 12,300 -1,800 Descending Salt Lake Center
03:15PM 40.6000 -112.0736 North 352 405 11,500 -1,180 Descending Salt Lake Center
03:15PM 40.6589 -112.0831 353° North 344 396 11,100 -581 Descending Salt Lake Center
03:16PM 40.6911 -112.0847 358° North 322 371 10,900 -98 Descending Salt Lake Center
03:16PM 40.7364 -112.0939 351° North 284 327 11,000 97 Climbing Salt Lake Center
03:17PM 40.7669 -112.0928 North 269 310 11,000 -182 Level Salt Lake Center
03:17PM 40.8200 -112.1022 352° North 261 300 10,800 -876 Descending Salt Lake Center
03:18PM 40.8817 -112.1097 355° North 261 300 9,700 -1,133 Descending Salt Lake Center
03:19PM 40.9264 -112.1119 358° North 260 299 9,100 -990 Descending Salt Lake Center
03:20PM 40.9692 -112.0642 40° Northeast 242 278 8,100 -1,113 Descending Salt Lake Center
03:21PM 40.9367 -112.0108 129° Southeast 217 250 6,800 -1,171 Descending Salt Lake Center
03:22PM 40.8853 -111.9853 159° South 197 227 5,700 -976 Descending Salt Lake Center
03:23PM 40.8403 -111.9811 176° South 162 186 4,800 -726 Descending Salt Lake Center
03:24PM 40.8039 -111.9761 174° South 132 152 4,200 -581 Descending Salt Lake Center
03:26PM 40.7833 -111.9667 North  Level FlightAware Approximate